When you browse on this site, cookies collect data to enhance your experience and personalize the content and advertising you see.
Visit our Privacy Policy to learn more. By continuing to use the site, you agree to this use of cookies and data.
  • In Deutschland
  • Länderverzeichnis
  • Für 7 Tage
  • Wassertemperatur
  • Wetterkarte
  • Widgets
  • user-avatar
    Anmelden

    Stündliche Wetter Mendoza

    Heute, 9 Dezember, Montag

    Zeit Temperatur Niederschläge Wind Luftdruck Luftfeuchtigkeit
    00:00 +27°C° 0.1 mm 2 m/S 698 mmHg 38%
    01:00 +26°C° 0 mm 2 m/S 697 mmHg 39%
    02:00 +26°C° 0 mm 2 m/S 697 mmHg 41%
    03:00 +25°C° 0 mm 1 m/S 697 mmHg 42%
    04:00 +25°C° 0 mm 1 m/S 697 mmHg 44%
    05:00 +26°C° 0 mm 1 m/S 698 mmHg 39%
    06:00 +28°C° 0 mm 1 m/S 698 mmHg 35%
    07:00 +29°C° 0 mm 2 m/S 699 mmHg 30%
    08:00 +31°C° 0 mm 3 m/S 698 mmHg 27%
    09:00 +33°C° 0 mm 5 m/S 698 mmHg 23%
    10:00 +35°C° 0 mm 7 m/S 698 mmHg 19%
    11:00 +36°C° 0 mm 7 m/S 698 mmHg 18%
    12:00 +36°C° 0 mm 7 m/S 698 mmHg 17%
    13:00 +38°C° 0 mm 7 m/S 697 mmHg 16%
    14:00 +38°C° 0 mm 6 m/S 697 mmHg 16%
    15:00 +37°C° 0 mm 5 m/S 696 mmHg 16%
    16:00 +37°C° 0 mm 4 m/S 696 mmHg 16%
    17:00 +35°C° 0.1 mm 3 m/S 696 mmHg 18%
    18:00 +34°C° 0.1 mm 3 m/S 696 mmHg 20%
    19:00 +31°C° 0.1 mm 2 m/S 697 mmHg 23%
    20:00 +31°C° 0 mm 2 m/S 697 mmHg 24%
    21:00 +30°C° 0 mm 2 m/S 697 mmHg 26%
    22:00 +29°C° 0 mm 2 m/S 697 mmHg 28%
    23:00 +28°C° 0 mm 2 m/S 697 mmHg 29%

    Morgen, 10 Dezember, Dienstag

    Zeit Temperatur Niederschläge Wind Luftdruck Luftfeuchtigkeit
    00:00 +28°C° 0 mm 2 m/S 696 mmHg 30%
    01:00 +27°C° 0 mm 2 m/S 696 mmHg 31%
    02:00 +26°C° 0 mm 2 m/S 696 mmHg 31%
    03:00 +26°C° 0 mm 1 m/S 696 mmHg 31%
    04:00 +25°C° 0 mm 1 m/S 696 mmHg 32%
    05:00 +27°C° 0 mm 3 m/S 697 mmHg 29%
    06:00 +28°C° 0 mm 4 m/S 697 mmHg 26%
    07:00 +30°C° 0 mm 6 m/S 698 mmHg 23%
    08:00 +32°C° 0 mm 5 m/S 698 mmHg 22%
    09:00 +33°C° 0 mm 5 m/S 698 mmHg 20%
    10:00 +34°C° 0 mm 4 m/S 698 mmHg 18%
    11:00 +35°C° 0 mm 3 m/S 697 mmHg 17%
    12:00 +36°C° 0 mm 2 m/S 697 mmHg 16%
    13:00 +36°C° 0 mm 2 m/S 696 mmHg 15%
    14:00 +37°C° 0 mm 2 m/S 696 mmHg 15%
    15:00 +37°C° 0 mm 2 m/S 695 mmHg 15%
    16:00 +37°C° 0 mm 2 m/S 695 mmHg 14%
    17:00 +36°C° 0 mm 2 m/S 695 mmHg 16%
    18:00 +34°C° 0 mm 1 m/S 695 mmHg 18%
    19:00 +33°C° 0 mm 1 m/S 696 mmHg 20%
    20:00 +32°C° 0 mm 1 m/S 696 mmHg 21%
    21:00 +31°C° 0 mm 2 m/S 696 mmHg 23%
    22:00 +31°C° 0 mm 2 m/S 696 mmHg 24%
    23:00 +30°C° 0 mm 2 m/S 695 mmHg 25%

    übermorgen, 11 Dezember, Mittwoch

    Zeit Temperatur Niederschläge Wind Luftdruck Luftfeuchtigkeit
    00:00 +29°C° 0 mm 2 m/S 695 mmHg 27%
    01:00 +28°C° 0 mm 2 m/S 694 mmHg 28%
    02:00 +28°C° 0 mm 3 m/S 694 mmHg 28%
    03:00 +28°C° 0 mm 3 m/S 694 mmHg 27%
    04:00 +28°C° 0 mm 4 m/S 694 mmHg 27%
    05:00 +29°C° 0 mm 5 m/S 694 mmHg 25%
    06:00 +29°C° 0 mm 7 m/S 695 mmHg 23%
    07:00 +31°C° 0 mm 8 m/S 695 mmHg 22%
    08:00 +32°C° 0 mm 8 m/S 695 mmHg 20%
    09:00 +33°C° 0 mm 8 m/S 695 mmHg 19%
    10:00 +34°C° 0 mm 8 m/S 695 mmHg 18%
    11:00 +34°C° 0 mm 7 m/S 695 mmHg 17%
    12:00 +35°C° 0 mm 7 m/S 695 mmHg 16%
    13:00 +36°C° 0 mm 6 m/S 695 mmHg 15%
    14:00 +36°C° 0 mm 6 m/S 694 mmHg 15%
    15:00 +36°C° 0 mm 7 m/S 694 mmHg 15%
    16:00 +36°C° 0 mm 7 m/S 694 mmHg 15%
    17:00 +34°C° 0 mm 5 m/S 694 mmHg 17%
    18:00 +32°C° 0 mm 4 m/S 695 mmHg 20%
    19:00 +30°C° 0 mm 3 m/S 695 mmHg 22%
    20:00 +29°C° 0 mm 3 m/S 696 mmHg 24%
    21:00 +28°C° 0 mm 3 m/S 696 mmHg 26%
    22:00 +27°C° 0 mm 2 m/S 697 mmHg 28%
    23:00 +26°C° 0 mm 3 m/S 697 mmHg 29%

    12 Dezember, Donnerstag

    Zeit Temperatur Niederschläge Wind Luftdruck Luftfeuchtigkeit
    00:00 +26°C° 0 mm 3 m/S 697 mmHg 30%
    01:00 +25°C° 0 mm 3 m/S 697 mmHg 32%
    02:00 +23°C° 0 mm 4 m/S 698 mmHg 29%
    03:00 +21°C° 0 mm 4 m/S 698 mmHg 27%
    04:00 +20°C° 0 mm 4 m/S 698 mmHg 24%
    05:00 +20°C° 0 mm 4 m/S 698 mmHg 23%
    06:00 +20°C° 0 mm 4 m/S 698 mmHg 22%
    07:00 +20°C° 0 mm 4 m/S 699 mmHg 21%
    08:00 +21°C° 0 mm 4 m/S 699 mmHg 19%
    09:00 +22°C° 0 mm 4 m/S 698 mmHg 18%
    10:00 +23°C° 0 mm 4 m/S 698 mmHg 17%
    11:00 +25°C° 0 mm 4 m/S 698 mmHg 17%
    12:00 +26°C° 0 mm 4 m/S 698 mmHg 16%
    13:00 +27°C° 0 mm 4 m/S 697 mmHg 15%
    14:00 +27°C° 0 mm 4 m/S 697 mmHg 15%
    15:00 +27°C° 0 mm 4 m/S 697 mmHg 15%
    16:00 +28°C° 0 mm 4 m/S 696 mmHg 14%
    17:00 +27°C° 0 mm 4 m/S 697 mmHg 15%
    18:00 +26°C° 0 mm 4 m/S 697 mmHg 16%
    19:00 +24°C° 0 mm 3 m/S 697 mmHg 17%
    20:00 +24°C° 0 mm 3 m/S 697 mmHg 19%
    21:00 +23°C° 0 mm 2 m/S 698 mmHg 21%
    22:00 +21°C° 0 mm 2 m/S 698 mmHg 23%
    23:00 +20°C° 0 mm 2 m/S 697 mmHg 24%

    13 Dezember, Freitag

    Zeit Temperatur Niederschläge Wind Luftdruck Luftfeuchtigkeit
    00:00 +20°C° 0 mm 1 m/S 697 mmHg 25%
    01:00 +19°C° 0 mm 1 m/S 696 mmHg 26%
    02:00 +18°C° 0 mm 2 m/S 696 mmHg 26%
    03:00 +18°C° 0 mm 2 m/S 696 mmHg 27%
    04:00 +17°C° 0 mm 2 m/S 696 mmHg 27%
    05:00 +19°C° 0 mm 2 m/S 696 mmHg 25%
    06:00 +20°C° 0 mm 2 m/S 696 mmHg 22%
    07:00 +23°C° 0 mm 2 m/S 696 mmHg 19%
    08:00 +24°C° 0 mm 3 m/S 696 mmHg 18%
    09:00 +26°C° 0 mm 3 m/S 696 mmHg 17%
    10:00 +27°C° 0 mm 3 m/S 696 mmHg 16%
    11:00 +28°C° 0 mm 3 m/S 696 mmHg 15%
    12:00 +29°C° 0 mm 3 m/S 695 mmHg 15%
    13:00 +30°C° 0 mm 2 m/S 695 mmHg 14%
    14:00 +31°C° 0 mm 2 m/S 695 mmHg 14%
    15:00 +31°C° 0 mm 2 m/S 694 mmHg 14%
    16:00 +32°C° 0 mm 2 m/S 694 mmHg 13%
    17:00 +31°C° 0 mm 2 m/S 694 mmHg 15%
    18:00 +29°C° 0 mm 2 m/S 694 mmHg 17%
    19:00 +28°C° 0 mm 1 m/S 695 mmHg 18%
    20:00 +27°C° 0 mm 2 m/S 695 mmHg 20%
    21:00 +26°C° 0 mm 2 m/S 696 mmHg 22%
    22:00 +26°C° 0 mm 2 m/S 696 mmHg 23%
    23:00 +25°C° 0 mm 3 m/S 696 mmHg 24%

    14 Dezember, Samstag

    Zeit Temperatur Niederschläge Wind Luftdruck Luftfeuchtigkeit
    00:00 +25°C° 0 mm 3 m/S 696 mmHg 25%
    01:00 +24°C° 0 mm 3 m/S 696 mmHg 25%
    02:00 +23°C° 0 mm 4 m/S 696 mmHg 26%
    03:00 +22°C° 0 mm 5 m/S 696 mmHg 26%
    04:00 +21°C° 0 mm 5 m/S 696 mmHg 27%
    05:00 +22°C° 0 mm 5 m/S 696 mmHg 28%
    06:00 +23°C° 0 mm 5 m/S 697 mmHg 30%
    07:00 +23°C° 0 mm 5 m/S 697 mmHg 31%
    08:00 +26°C° 0 mm 4 m/S 697 mmHg 29%
    09:00 +27°C° 0 mm 4 m/S 697 mmHg 27%
    10:00 +29°C° 0 mm 3 m/S 697 mmHg 25%
    11:00 +30°C° 0 mm 3 m/S 697 mmHg 23%
    12:00 +31°C° 0 mm 3 m/S 696 mmHg 21%
    13:00 +33°C° 0 mm 3 m/S 695 mmHg 20%
    14:00 +33°C° 0 mm 3 m/S 695 mmHg 19%
    15:00 +34°C° 0 mm 3 m/S 695 mmHg 18%
    16:00 +34°C° 0 mm 3 m/S 695 mmHg 18%
    17:00 +33°C° 0 mm 3 m/S 695 mmHg 19%
    18:00 +31°C° 0 mm 2 m/S 696 mmHg 20%
    19:00 +30°C° 0 mm 2 m/S 696 mmHg 22%
    20:00 +29°C° 0 mm 3 m/S 696 mmHg 23%
    21:00 +29°C° 0 mm 3 m/S 697 mmHg 25%
    22:00 +28°C° 0 mm 3 m/S 697 mmHg 26%
    23:00 +27°C° 0 mm 4 m/S 697 mmHg 29%
    Mehr zeigen